Hourly Data Report for December 12, 2020

SHEARWATER RCS
NOVA SCOTIA
Current Station Operator: ECCC - MSC

44°37'47.000" N
63°30'48.000" W
24.00 m
8205092
71264
AAW

Download Data

Hourly Data (December 2020)
Hourly Data Report for December 12, 2020
TIME
LST
Temp Definition
°C
Dew Point Definition
°C
Rel Hum Definition
%
Precip. Amount Definition
mm

Wind Dir Definition
10's deg

Wind Spd Definition
km/h
Visibility Definition
km
Stn Press Definition
kPa
Hmdx Definition


Wind Chill Definition


Weather Definition


00:00 5.4 2.6 82 0.0 17 4   101.72     LegendNANA
01:00 4.8 3.6 92 0.0 10 5   101.65     LegendNANA
02:00 6.8 5.8 94 0.0 23 7   101.61     LegendNANA
03:00 7.6 6.6 93 0.0 23 9   101.64     LegendNANA
04:00 7.9 6.6 92 0.0 24 9   101.62     LegendNANA
05:00 7.3 5.8 90 0.0 29 11   101.69     LegendNANA
06:00 6.5 4.7 88 0.0 29 8   101.75     LegendNANA
07:00 5.8 4.3 90 0.0 30 6   101.84     LegendNANA
08:00 4.8 3.1 89 0.0 32 9   101.96     LegendNANA
09:00 4.4 2.2 86 0.0 33 12   102.05     LegendNANA
10:00 4.4 0.6 76 0.2 34 14   102.16     LegendNANA
11:00 4.5 -0.5 70 0.0 33 17   102.22     LegendNANA
12:00 5.1 -0.1 69 0.0 36 13   102.20     LegendNANA
13:00 4.4 0.0 73 0.0 35 12   102.25     LegendNANA
14:00 4.5 -0.2 71 0.0 1 10   102.24     LegendNANA
15:00 4.0 -0.6 72 0.0 35 13   102.27     LegendNANA
16:00 3.1 -0.8 76 0.0 36 11   102.34     LegendNANA
17:00 2.5 -1.2 77 0.0 2 10   102.36     LegendNANA
18:00 2.3 -0.9 79 0.0 6 8   102.40     LegendNANA
19:00 2.0 -1.3 79 0.0 8 3   102.47     LegendNANA
20:00 1.8 -1.0 81 0.0 4 7   102.44     LegendNANA
21:00 1.8 -0.8 83 0.0 6 7   102.39     LegendNANA
22:00 1.9 -0.2 86 0.0 5 15   102.29     LegendNANA
23:00 1.7 0.4 91 0.5 6 11   102.25     LegendNANA

Notes on Data Quality.

Legend

  • E = Estimated
  • M = Missing
  • NA = Not Available*
  • [empty] = Indicates an unobserved value
Date modified: